Regional Weather Roundup
Issued by NWS

Home | Current Version | Previous Version | Text Only | Print | Product List | Glossary Off
Versions: 1 2 3 4 5 6 7 8 9 10 11 12 13 14 15 16 17 18 19 20 21 22 23 24 25 26 27 28 29 30 31 32 33 34 35 36 37 38 39 40 41 42 43 44 45 46 47 48 49 50

000
ASUS43 KLMK 031702
RWRKY
KENTUCKY REGIONAL WEATHER ROUNDUP
NATIONAL WEATHER SERVICE LOUISVILLE KY
100 PM EDT TUE MAY 03 2016

NOTE "FAIR" INDICATES FEW OR NO CLOUDS BELOW 12,000 FEET
WITH NO SIGNIFICANT WEATHER AND/OR OBSTRUCTIONS TO VISIBILITY.

KYZ001>023-026-027-061>063-070>075-031800-
WESTERN AND SOUTH CENTRAL KENTUCKY

CITY           SKY/WX    TMP DP  RH WIND       PRES   REMARKS
PADUCAH        CLOUDY    62  46  55 NW6       30.01S
HENDERSON      PTSUNNY   63  45  51 NW12      29.98F
OWENSBORO      PTSUNNY   62  46  55 NW12      29.98F
HOPKINSVILLE   PTSUNNY   61  49  65 NW9       29.99S
BOWLING GREEN  CLOUDY    61  50  67 VRB6      29.98F
GLASGOW        NOT AVBL
$$

KYZ024-025-028>034-038-045-046-053-031800-
NORTH CENTRAL KENTUCKY

CITY           SKY/WX    TMP DP  RH WIND       PRES   REMARKS
LOUISVILLE/SDF PTSUNNY   62  44  51 W9        29.93F
LOUISVILLE/LOU PTSUNNY   62  46  55 W10       29.93F
FORT KNOX      PTSUNNY   61  46  58 W8        29.93F
$$

KYZ035>037-039>044-047>052-055>060-089>105-031800-
NORTHEAST KENTUCKY

CITY           SKY/WX    TMP DP  RH WIND       PRES   REMARKS
LEXINGTON      CLOUDY    60  48  64 W12       29.92F
COVINGTON      CLOUDY    54  52  93 N9        29.91S
FRANKFORT      CLOUDY    60  46  59 W8        29.92F
$$

KYZ054-064>069-076>088-106>120-031800-
SOUTHEAST KENTUCKY

CITY           SKY/WX    TMP DP  RH WIND       PRES   REMARKS
JACKSON        PTSUNNY   62  53  72 NW7       29.90F
LONDON         CLOUDY    61  48  62 NW14      29.93F
SOMERSET       NOT AVBL
MIDDLESBORO    CLOUDY    67  51  56 W9        29.92F
MONTICELLO     PTSUNNY   62  50  64 NW8G18    29.96F
$$




USA.gov is the U.S. government's official web portal to all federal, state and local government web resources and services.